sat.trackr.live / text

‹ back to catalog

STARLINK-5633

NORAD 55410 · 2023-014V

PAYLOAD ACTIVE UNKNOWN

§ Identity

Operator
Country
US
Launch date
2023-01-31
Launch site
AFWTR
Launch vehicle
Mass (kg)
RCS (m²)

Purposes: comms

External: N2YO · Heavens-Above · Gunter

§ Orbital elements

Epoch: 2026-09-20T22:38:47.900544Z

Period
96.04 min
Inclination
69.9987°
Eccentricity
0.0003143
Mean motion
14.99318040 rev/d
Perigee alt
566.8 km
Apogee alt
571.2 km
Semi-major
6,947.1 km
B*
9.6352e-3
RAAN
311.9779°
Arg perigee
275.7164°
Mean anomaly
84.3638°
Rev number
20,081

§ Raw data

STARLINK-56331 55410U 23014V   26263.94360996  .00119892  00000+0  96352-2 0  99962 55410  69.9987 311.9779 0003143 275.7164  84.3638 14.99318040200817

JSON: /api/v1/satellites/55410 · /tle

For live sub-satellite position, see the globe view (requires WebGL).

§ Visibility from observer

Set your observer location to see the next 7 days of passes ≥ 10°. The values pass through the URL so the page stays shareable.

No JS? Fill the form by hand. The geolocation button needs JavaScript.